RH
25 25 24 24 28 42 59 71 83 86 86 86 89 91 91 87 74 71 56 68 66 70 72 49 47 75 78 78 75 62 70 76 66
15 16 17 20 22 22 23 32 52 65 75 84 85 87 93 95 90 83 75 66 67 70 62 52 35 34 37 46 51 53 60 68 74
18 17 16 15 14 15 17 18 20 26 47 63 74 82 86 91 91 90 86 82 90 91 73 54 48 40 34 40 44 49 48 64 74
19 20 20 20 20 18 17 16 16 16 18 26 52 64 75 87 85 89 91 87 95 93 87 65 56 54 49 64 57 41 42 48 65
22 24 24 22 22 23 23 21 19 19 20 18 19 34 59 66 77 82 84 91 96 95 89 81 60 58 61 85 91 87 72 63 53
24 25 26 27 27 24 24 23 24 25 23 28 27 22 27 49 61 65 76 85 89 94 93 90 77 65 63 64 71 88 92 91 86
29 30 30 30 28 28 26 25 24 26 27 29 45 44 42 44 46 54 68 75 84 84 94 98 92 80 74 72 71 70 71 80 89
21 21 22 23 24 22 20 18 17 18 22 28 32 49 57 53 53 51 54 64 86 88 87 97 100 94 89 86 86 87 84 81 79
26 24 22 20 20 19 20 18 13 13 17 24 28 43 56 55 51 50 49 57 72 84 79 91 98 97 97 94 93 92 94 93 90
29 26 26 23 18 16 16 15 11 15 14 15 25 38 50 54 55 46 46 49 53 58 66 71 64 66 80 93 88 90 91 93 89
25 24 28 26 19 18 16 14 13 15 14 14 30 40 42 46 51 53 51 48 47 51 51 46 38 35 47 69 94 80 76 85 84
30 28 31 27 20 20 17 21 16 23 26 26 35 46 52 44 45 53 54 56 56 49 44 40 37 32 29 40 49 57 57 62 66
34 32 34 29 24 23 20 23 14 25 44 46 46 46 56 60 50 50 58 58 57 52 54 47 40 35 35 33 37 45 45 45 48
39 36 34 29 26 24 24 22 23 29 58 49 60 55 49 58 59 53 58 62 60 59 59 56 53 46 37 38 39 39 40 38 36
39 38 34 30 26 25 24 21 22 47 72 53 66 71 70 65 66 61 68 66 62 63 66 62 62 68 60 52 50 51 52 52 48
34 41 38 34 29 27 24 22 23 29 47 56 55 78 84 80 75 74 81 77 71 76 81 79 83 80 77 72 70 66 64 63 61
38 43 41 37 31 28 24 24 24 27 54 67 90 87 88 85 84 80 82 80 76 79 79 80 81 80 79 73 66 64 64 63 63
43 47 42 37 34 28 25 23 24 32 42 58 95 90 93 79 85 82 82 85 85 84 82 81 77 77 76 72 69 64 57 56 59
56 52 43 39 34 30 29 26 22 24 32 47 60 96 94 93 75 85 85 87 85 79 78 77 77 76 76 72 68 66 64 60 56
63 57 46 40 34 32 32 29 26 27 30 37 50 47 89 94 87 86 75 82 81 77 75 73 71 76 75 70 77 72 72 69 58
Wind_Speed
15 15 15 14 14 14 14 14 15 15 13 14 14 14 14 13 12 11 13 14 13 15 12 11 15 14 13 11 9 7 8 7 4
15 15 16 16 16 16 16 17 16 16 16 16 16 16 15 15 15 14 13 15 14 13 14 13 12 13 13 12 11 10 10 9 7
13 13 13 13 15 16 17 18 19 19 18 18 18 19 17 18 17 16 16 19 15 16 16 15 14 12 11 10 9 10 11 10 9
14 14 14 15 15 15 16 17 18 20 21 21 21 20 21 20 20 19 19 21 18 22 18 17 16 14 13 11 9 9 9 10 11
15 16 16 16 15 14 15 16 17 18 20 21 22 23 23 22 23 24 22 21 25 25 23 19 18 16 15 16 15 13 11 10 10
12 12 13 14 15 15 16 16 16 16 17 17 18 21 24 23 22 23 22 20 23 27 26 22 18 18 17 16 15 15 16 15 13
11 12 14 14 15 15 16 17 17 17 17 17 15 15 16 15 16 19 18 19 20 21 26 25 21 19 18 18 17 16 16 16 18
12 13 14 15 15 15 17 18 18 18 18 18 17 17 17 16 15 14 16 18 15 16 18 23 19 20 21 20 19 19 18 19 18
14 14 15 15 17 17 18 20 20 18 18 18 16 14 14 21 22 19 17 16 18 16 16 15 17 16 18 19 19 18 20 21 21
15 14 15 15 16 18 18 19 21 18 18 16 14 15 15 14 18 22 20 19 18 18 20 21 22 23 21 18 18 17 19 18 18
15 14 14 14 15 16 18 18 19 17 17 15 12 12 13 13 12 13 21 21 22 24 25 25 24 23 22 23 20 22 24 23 22
15 16 15 14 14 16 17 15 15 15 15 12 11 9 8 10 12 13 12 15 22 22 23 22 20 22 23 22 21 21 22 23 23
15 16 15 14 15 16 16 16 15 14 14 10 7 9 11 11 12 13 12 11 13 16 19 18 15 15 19 22 22 21 22 21 22
15 15 14 14 15 16 16 15 15 14 11 12 7 7 8 8 11 12 14 15 15 16 15 15 14 12 13 16 18 20 20 22 23
14 14 13 14 15 15 14 14 13 11 14 12 5 3 4 4 7 6 8 9 10 12 10 7 7 5 4 6 10 13 15 16 18
12 14 13 13 14 14 14 14 14 10 12 9 2 2 6 6 5 4 1 3 1 2 3 3 4 4 3 2 4 7 9 10 12
13 14 12 13 13 12 12 12 12 11 11 11 4 4 2 1 2 4 4 5 4 3 3 5 7 7 8 8 8 8 9 11 12
14 12 11 11 12 12 11 11 12 11 10 7 5 2 3 6 3 2 2 3 2 1 5 8 8 7 9 11 13 12 11 11 12
12 11 11 11 11 11 10 10 9 10 9 5 5 1 4 2 2 4 5 5 5 6 7 9 8 10 12 13 13 13 13 12 12
11 11 11 10 10 9 9 8 8 8 8 8 6 5 3 4 6 11 10 11 10 12 13 14 11 9 11 12 12 12 11 11 12
Wind_Direction
313 310 308 303 298 295 290 286 283 284 283 281 275 265 263 258 249 238 231 231 238 245 246 244 239 240 240 241 241 234 221 230 242
314 310 307 304 300 294 290 287 283 278 276 275 273 273 265 256 251 242 233 228 235 250 253 247 239 238 238 238 237 231 224 230 225
330 329 322 312 306 300 293 287 282 277 272 269 268 269 267 258 253 246 235 226 228 252 255 243 239 233 230 224 225 227 226 228 236
326 323 320 317 316 312 306 299 293 286 278 270 263 261 264 260 258 253 239 230 226 241 249 244 238 233 222 216 220 224 227 231 235
329 328 325 324 324 319 311 306 301 294 288 280 269 260 257 258 256 256 253 241 232 232 241 241 238 234 230 228 233 235 236 237 245
325 321 328 331 329 323 317 313 307 300 293 287 277 263 254 253 256 258 260 258 248 241 238 235 235 234 232 235 236 237 241 244 247
327 328 323 323 322 320 316 313 308 301 293 283 272 261 253 251 259 252 255 263 251 246 242 230 233 237 235 234 238 245 245 247 249
327 322 321 317 311 317 318 314 309 304 293 281 278 268 254 244 247 255 252 259 257 249 243 246 241 235 237 241 241 245 249 252 252
327 326 323 321 317 320 320 316 311 304 294 285 279 270 260 248 245 248 251 246 253 252 253 245 243 244 243 246 247 252 253 252 252
325 323 321 319 320 318 316 317 312 308 300 286 274 261 258 261 252 245 248 250 241 248 252 257 259 254 246 244 246 251 250 252 252
330 330 324 321 322 325 320 320 318 315 303 287 275 265 257 258 261 258 242 249 251 247 252 257 259 254 251 246 246 247 252 254 254
333 334 330 325 327 330 322 323 323 319 305 292 281 261 251 256 255 260 253 248 251 255 257 261 260 252 248 249 250 251 253 254 255
331 335 330 327 329 328 325 328 330 327 319 305 292 260 251 258 258 247 251 253 253 255 260 266 265 254 249 249 250 251 256 256 256
324 329 332 330 331 328 326 329 332 335 324 313 316 275 263 257 262 249 245 251 261 270 271 269 270 274 259 248 248 250 253 253 257
316 323 329 329 332 330 325 329 337 330 321 330 324 17 49 337 287 260 250 256 265 268 271 263 255 262 260 248 247 250 252 255 256
314 316 323 328 330 330 332 333 338 339 331 355 23 91 53 44 62 63 326 328 308 286 271 273 248 253 264 262 249 246 249 254 256
317 313 318 323 325 327 330 333 344 353 343 357 41 57 105 25 89 26 332 352 355 346 319 270 278 280 284 278 269 262 266 263 262
311 308 314 320 321 326 330 334 338 344 3 348 19 17 29 17 141 54 44 359 319 252 314 321 305 275 276 285 283 280 276 268 262
309 315 318 316 320 323 327 331 333 330 346 12 325 261 294 341 318 181 235 235 250 247 267 279 291 297 293 291 291 292 291 283 270
306 317 317 317 318 323 328 328 328 325 330 340 356 12 234 247 278 285 280 243 251 262 276 283 281 285 294 297 298 300 292 286 277